CYGNUS NG-19

导读

CYGNUS NG-19(天鹅座NG-19)是美国诺斯罗普·格鲁曼公司执行的第19次国际空间站商业补给任务,于北京时间2023年8月2日由安塔瑞斯230+火箭发射,这也是该型火箭的最后一次发射。飞船携带超3700千克补给与科研物资,两天后对接空间站,完成任务后离轨再入大气层销毁。

Basic Information
目录编号:
57488
目录名称:
CYGNUS NG-19
国际标识:
2023-110A
轨道中心:
EARTH
卫星名称:
CYGNUS NG-19
卫星全名:
--
卫星状态:
已陨落 最后检测时间 2024-01-09
发射日期:
2023-08-02 UTC
国别 :
美国 (US)
星等 :
--
Orbit Information
数据来源 国际轨道数据
星历时间: 2024-01-10T02:36:16+0800
轨道信息已过期916天
半长轴: 6777.053km
偏心率: 0.0002674
轨道倾角: 51.644°
近地点辐角 83.470°
升交点赤经 26.064°
平近点角 276.660°
近地点: 397.105km
远地点: 400.731km
周期: 92.538分钟
每日圈数: 15.561142
Detailed Information
使用方式:
暂无